STARLINK-35925

Last updated on Fri Dec 19 2025 00:02:08 GMT+0000 (Coordinated Universal Time)

1 66887U 25283K 25352.58336806 -.01358068 00000+0 -84983-2 0 9997 2 66887 53.1554 44.4071 0000912 71.5238 66.9688 15.78737465 3366
UTC large
Height (km)
Speed (km/s)
/
Latitude / Longitude
Inclination (degrees)
Orbital Period (minutes)
Azimuth
Elevation
Range (km)
Doppler Factor

Next 0 passes for location: London (51.5072 / 0.1276)

Sorry there are no passes over London.